| time (UTC) | temp F | wind direction | speed knots | gust knots | rain 1hr in | rain 24hr in | rain mn in | humidity % | barometer mb |
| 20260504184504 | 68 | 134 | 7.8 | 15.6 | 0.00 | 0.00 | 0.00 | 33 | 1007.1 |
| 20260504183002 | 68 | 269 | 6.1 | 13.0 | 0.00 | 0.00 | 0.00 | 33 | 1007.2 |
| 20260504181604 | 67 | 164 | 5.2 | 13.0 | 0.00 | 0.00 | 0.00 | 33 | 1007.2 |
| 20260504180058 | 66 | 175 | 5.2 | 12.2 | 0.00 | 0.00 | 0.00 | 34 | 1007.4 |
| 20260504174558 | 66 | 163 | 5.2 | 13.0 | 0.00 | 0.00 | 0.00 | 34 | 1007.5 |
| 20260504173055 | 65 | 228 | 6.1 | 17.4 | 0.00 | 0.00 | 0.00 | 33 | 1007.3 |
| 20260504171552 | 65 | 282 | 6.1 | 20.9 | 0.00 | 0.00 | 0.00 | 34 | 1007.3 |
| 20260504120130 | 51 | 180 | 3.5 | 8.7 | 0.00 | 0.00 | 0.00 | 54 | 1010.3 |
| 20260504081539 | 46 | 128 | 2.6 | 7.8 | 0.00 | 0.00 | 0.00 | 58 | 1010.1 |
| 20260504050008 | 36 | 162 | 0.0 | 1.7 | 0.00 | 0.00 | 0.00 | 80 | 1010.4 |
| 20260504044510 | 33 | 161 | 0.0 | 3.5 | 0.00 | 0.00 | 0.00 | 91 | 1010.4 |
| 20260504043115 | 32 | 154 | 0.0 | 2.6 | 0.00 | 0.00 | 0.00 | 90 | 1010.4 |
| 20260504041557 | 31 | 211 | 0.0 | 0.9 | 0.00 | 0.00 | 0.00 | 90 | 1010.3 |
| 20260504040054 | 31 | 211 | 0.0 | 0.0 | 0.00 | 0.00 | 0.00 | 88 | 1010.1 |
| 20260504034554 | 32 | 211 | 0.0 | 0.0 | 0.00 | 0.00 | 0.00 | 88 | 1010.1 |
| 20260504033101 | 32 | 211 | 0.0 | 0.0 | 0.00 | 0.00 | 0.00 | 88 | 1010.1 |
| 20260504031555 | 32 | 211 | 0.0 | 0.0 | 0.00 | 0.00 | 0.00 | 87 | 1010.1 |
| 20260504024546 | 33 | 211 | 0.0 | 0.0 | 0.00 | 0.00 | 0.00 | 86 | 1010.1 |
| 20260504023044 | 34 | 211 | 0.0 | 0.9 | 0.00 | 0.00 | 0.00 | 84 | 1010.1 |
| 20260504021547 | 34 | 211 | 0.0 | 0.0 | 0.00 | 0.00 | 0.00 | 83 | 1010.2 |
| 20260504020040 | 35 | 211 | 0.0 | 0.0 | 0.00 | 0.00 | 0.00 | 81 | 1010.1 |
| 20260504014540 | 36 | 211 | 0.0 | 0.0 | 0.00 | 0.00 | 0.00 | 80 | 1010.0 |
| 20260504013036 | 37 | 211 | 0.0 | 0.0 | 0.00 | 0.00 | 0.00 | 76 | 1009.8 |
| 20260504011533 | 38 | 211 | 0.0 | 0.0 | 0.00 | 0.00 | 0.00 | 73 | 1009.7 |
| 20260504010032 | 40 | 211 | 0.0 | 0.0 | 0.00 | 0.00 | 0.00 | 71 | 1009.4 |
| 20260504004540 | 41 | 211 | 0.0 | 0.0 | 0.00 | 0.00 | 0.00 | 67 | 1009.2 |
| 20260504003029 | 43 | 211 | 0.0 | 0.9 | 0.00 | 0.00 | 0.00 | 59 | 1008.9 |
| 20260504001535 | 44 | 210 | 0.0 | 2.6 | 0.00 | 0.00 | 0.00 | 53 | 1008.8 |
| 20260504000028 | 46 | 250 | 0.0 | 2.6 | 0.00 | 0.00 | 0.00 | 49 | 1008.6 |
| 20260503234534 | 47 | 204 | 0.0 | 5.2 | 0.00 | 0.00 | 0.00 | 45 | 1008.4 |
| 20260503233027 | 47 | 277 | 3.5 | 8.7 | 0.00 | 0.00 | 0.00 | 46 | 1008.3 |
| 20260503231527 | 47 | 134 | 0.9 | 3.5 | 0.00 | 0.00 | 0.00 | 46 | 1008.2 |
| 20260503230027 | 48 | 242 | 0.0 | 3.5 | 0.00 | 0.04 | 0.00 | 46 | 1008.2 |
| 20260503224526 | 48 | 240 | 1.7 | 9.6 | 0.00 | 0.04 | 0.00 | 46 | 1008.1 |
| 20260503223026 | 48 | 233 | 0.0 | 4.3 | 0.00 | 0.04 | 0.00 | 48 | 1008.0 |
| 20260503221531 | 48 | 289 | 1.7 | 10.4 | 0.00 | 0.04 | 0.00 | 45 | 1007.9 |
| 20260503220032 | 48 | 263 | 2.6 | 12.2 | 0.00 | 0.04 | 0.00 | 43 | 1007.8 |
| 20260503214533 | 48 | 175 | 1.7 | 11.3 | 0.00 | 0.04 | 0.00 | 44 | 1007.7 |
| 20260503213032 | 48 | 259 | 3.5 | 12.2 | 0.00 | 0.04 | 0.00 | 42 | 1007.7 |
| 20260503211522 | 49 | 242 | 6.1 | 13.9 | 0.00 | 0.04 | 0.00 | 40 | 1007.5 |
| 20260503210022 | 49 | 323 | 5.2 | 17.4 | 0.00 | 0.06 | 0.00 | 42 | 1007.2 |
| 20260503204527 | 49 | 269 | 6.1 | 13.9 | 0.00 | 0.06 | 0.00 | 40 | 1007.1 |
| 20260503203022 | 50 | 253 | 5.2 | 12.2 | 0.00 | 0.06 | 0.00 | 42 | 1007.1 |
| 20260503201520 | 49 | 180 | 2.6 | 13.0 | 0.00 | 0.06 | 0.00 | 43 | 1007.1 |
| 20260503200019 | 49 | 315 | 3.5 | 9.6 | 0.00 | 0.07 | 0.00 | 43 | 1007.1 |
| 20260503194521 | 49 | 232 | 6.1 | 15.6 | 0.00 | 0.07 | 0.00 | 41 | 1007.0 |
| 20260503193018 | 49 | 244 | 5.2 | 13.9 | 0.00 | 0.07 | 0.00 | 42 | 1007.0 |
| 20260503191520 | 50 | 284 | 3.5 | 12.2 | 0.00 | 0.07 | 0.00 | 41 | 1006.7 |
| 20260503190017 | 49 | 190 | 5.2 | 11.3 | 0.00 | 0.08 | 0.00 | 42 | 1006.8 |